Home > Time Zones > World Clock > Weather > Sweden > Lund > Past weeks

Flag for Sweden Weather past 2 weeks in Lund, Sweden

Now
50 °F

Partly sunny.


Feels Like: 46 °F
Forecast: 49 / 59 °F
Wind: 12 mph from Southwest

Location: Malmo / Sturup

Current Time: Sep 5, 2015 at 7:29:40 PM

Latest Report: Sep 5, 2015 at 6:50 PM


Visibility: N/A

Pressure: 29.47 "Hg

Humidity: 94%

Dew point: 48 °F

Location of LundLocation

Historic Weather in Lund — Graph

°F

Lund temperature yesterday

Maximum temperature yesterday: 61 °F (at 3:50 PM)
Minimum temperature yesterday: 43 °F (at 12:20 AM)
Average temperature yesterday: 52 °F

Past Weeks' High & Low Weather Summary

 TemperatureHumidityPressure
High75 °F (Aug 23, 3:20 PM)100% (Aug 22, 5:20 AM)30.33 "Hg (Aug 22, 5:20 AM)
Low43 °F (Sep 3, 11:20 PM)38% (Aug 22, 2:20 PM)29.47 "Hg (Sep 5, 4:50 PM)
Average61 °F80%29.93 "Hg
* Reported Aug 21 6:20 PM — Sep 5 6:20 PM, Lund, Weather by CustomWeather, © 2015

Note: Actual official high and low records may vary slightly from our data, if they occured in-between our weather recording intervals... More about our weather records

Advertising

Lund weather history for previous 24 hours

 ConditionsComfort  
Time TempWeatherWind HumidityBarometerVisibility
6:20 PM
Sat, Sep 5
48 °FSprinkles. Partly sunny.9 mph94%29.50 "HgN/A
5:50 PM48 °FSprinkles. Partly sunny.12 mph94%29.47 "HgN/A
5:20 PM50 °FRain showers. Partly sunny.23 mph82%29.50 "HgN/A
4:50 PM57 °FRain showers. Partly sunny.21 mph72%29.47 "HgN/A
4:20 PM59 °FScattered clouds.20 mph63%29.50 "HgN/A
3:50 PM57 °FScattered clouds.18 mph72%29.50 "HgN/A
3:20 PM54 °FScattered clouds.14 mph77%29.50 "HgN/A
2:50 PM59 °FScattered clouds.20 mph68%29.50 "HgN/A
2:20 PM57 °FBroken clouds.20 mph72%29.50 "HgN/A
1:50 PM55 °FBroken clouds.13 mph82%29.53 "HgN/A
1:20 PM54 °FScattered clouds.15 mph94%29.50 "HgN/A
12:50 PM57 °FLight rain. Passing clouds.15 mph82%29.50 "HgN/A
12:20 PM55 °FFog.20 mph88%29.50 "HgN/A
11:50 AM57 °FScattered showers. Scattered clouds.14 mph88%29.50 "HgN/A
11:20 AM59 °FScattered clouds.15 mph77%29.50 "HgN/A
10:50 AM59 °FScattered clouds.13 mph88%29.53 "HgN/A
10:20 AM57 °FPartly sunny.13 mph88%29.53 "HgN/A
9:50 AM55 °FBroken clouds.9 mph94%29.50 "HgN/A
9:20 AM55 °FDrizzle. Broken clouds.8 mph94%29.50 "HgN/A
8:50 AM55 °FRain. Broken clouds.12 mph94%29.50 "Hg3 mi
8:20 AM55 °FLight rain. Fog.14 mph88%29.50 "HgN/A
7:50 AM55 °FBroken clouds.13 mph88%29.53 "HgN/A
7:20 AM55 °FPartly sunny.12 mph88%29.53 "HgN/A
6:50 AM55 °FMostly cloudy.13 mph88%29.53 "HgN/A
6:20 AM55 °FPartly cloudy.12 mph88%29.56 "HgN/A
5:50 AM55 °FMostly cloudy.13 mph88%29.56 "HgN/A
5:20 AM55 °FMostly cloudy.12 mph88%29.59 "HgN/A
4:50 AM54 °FPassing clouds.7 mph88%29.59 "HgN/A
4:20 AM55 °FPassing clouds.9 mph82%29.62 "HgN/A
3:50 AM55 °FClear.9 mph82%29.62 "Hg10 mi
3:20 AM57 °FPassing clouds.9 mph77%29.65 "HgN/A
2:50 AM57 °FPartly cloudy.7 mph82%29.65 "HgN/A
2:20 AM57 °FPartly cloudy.7 mph82%29.68 "HgN/A
1:50 AM57 °FLight rain. Partly cloudy.5 mph82%29.68 "HgN/A
1:20 AM57 °FPassing clouds.7 mph82%29.71 "HgN/A
12:50 AM57 °FClear.8 mph77%29.71 "Hg10 mi
12:20 AM54 °FMostly cloudy.5 mph94%29.71 "HgN/A
11:20 PM
Fri, Sep 4
55 °FPartly cloudy.8 mph82%29.74 "HgN/A
10:50 PM55 °FClear.7 mph88%29.74 "Hg10 mi
10:20 PM55 °FPassing clouds.7 mph88%29.77 "HgN/A
9:50 PM55 °FPassing clouds.5 mph88%29.77 "HgN/A
9:20 PM55 °FPassing clouds.5 mph88%29.77 "HgN/A
8:50 PM54 °FBroken clouds.5 mph94%29.77 "HgN/A
8:20 PM55 °FBroken clouds.3 mph88%29.80 "HgN/A
7:50 PM55 °FPartly sunny.6 mph82%29.80 "HgN/A
7:20 PM57 °FBroken clouds.12 mph72%29.80 "HgN/A
Weather by CustomWeather, © 2015

See weather overviewHow to use our weather pages